Home   Weather   Brno   Past weeks

Flag for Czech Republic Past Weather in Brno, Czech Republic — Yesterday and Last 2 Weeks

Now
69 °F

Overcast.


Feels Like: 69 °F
Forecast: 57 / 69 °F
Wind: 5 mph from East

Location: Brno / Turany

Current Time: Jul 24, 2017 at 4:36:31 pm

Latest Report: Jul 24, 2017 at 3:00 pm


Visibility: 19 mi

Pressure: 29.73 "Hg

Humidity: 64%

Dew Point: 57 °F

Location of BrnoLocation

Past Weather in Brno — Graph

°F

Brno Temperature Yesterday

Maximum temperature yesterday: 81 °F (at 11:00 am)
Minimum temperature yesterday: 63 °F (at 6:00 am)
Average temperature yesterday: 74 °F

High & Low Weather Summary for the Past Weeks

 TemperatureHumidityPressure
High90 °F (Jul 20, 5:00 pm)98% (Jul 11, 5:00 am)30.27 "Hg (Jul 11, 5:00 am)
Low49 °F (Jul 14, 4:00 am)29% (Jul 16, 3:00 pm)29.73 "Hg (Jul 24, 3:00 pm)
Average70 °F62%30.00 "Hg
* Reported Jul 9 3:00 pm — Jul 24 3:00 pm, Brno. Weather by CustomWeather, © 2017

Note: Actual official high and low records may vary slightly from our data, if they occured in-between our weather recording intervals... More about our weather records

Advertising

Brno Weather History for the Previous 24 Hours

Scroll right to see more
 ConditionsComfort  
Time TempWeatherWind HumidityBarometerVisibility
3:00 pm
Mon, Jul 24
69 °FOvercast.5 mph64%29.73 "Hg19 mi
2:00 pm72 °FOvercast.7 mph55%29.75 "Hg22 mi
1:00 pm68 °FOvercast.3 mph75%29.79 "Hg22 mi
12:00 pm67 °FLight rain. Overcast.5 mph78%29.82 "Hg22 mi
11:00 am66 °FOvercast.5 mph81%29.85 "Hg22 mi
10:00 am64 °FOvercast.3 mph81%29.87 "Hg19 mi
9:00 am64 °FOvercast.3 mph85%29.89 "Hg19 mi
8:00 am65 °FLight rain. Overcast.2 mph77%29.89 "Hg22 mi
7:00 am65 °FOvercast.2 mph86%29.90 "Hg19 mi
6:00 am64 °FOvercast.1 mph91%29.93 "Hg16 mi
5:00 am64 °FPassing clouds.3 mph86%29.93 "Hg19 mi
4:00 am64 °FOvercast.5 mph94%29.96 "Hg19 mi
3:00 am65 °FLight rain. Overcast.3 mph93%29.97 "Hg6 mi
2:00 am64 °FLight rain. Overcast.3 mph96%30.00 "Hg6 mi
1:00 am68 °FOvercast.2 mph74%29.99 "Hg31 mi
12:00 am65 °FPassing clouds.1 mph76%29.99 "Hg31 mi
11:00 pm
Sun, Jul 23
69 °FPassing clouds.2 mph66%29.98 "Hg31 mi
10:00 pm69 °FPassing clouds.2 mph68%29.98 "Hg31 mi
9:00 pm72 °FPassing clouds.5 mph63%29.97 "Hg31 mi
8:00 pm78 °FScattered clouds.2 mph50%29.95 "Hg31 mi
7:00 pm80 °FScattered clouds.3 mph45%29.94 "Hg37 mi
6:00 pm81 °FPartly sunny.6 mph45%29.94 "Hg37 mi
5:00 pm79 °FPartly sunny.6 mph45%29.96 "Hg31 mi
4:00 pm80 °FPartly sunny.7 mph44%29.97 "Hg31 mi
Weather by CustomWeather, © 2017

See weather overviewHow to use our weather pages